Location: Kalberh�ni
(46.4610°N, 7.2453°E)
Time: 21:36:11
(UTC+00:00)

USA 229 - Pass Details

Date: 26 October 2021
Orbit: 946 x 1266 km, 63.4° (Epoch: 25 November)

Event Time Altitude Azimuth Distance (km) Brightness Sun altitude
Rises 19:37:04 0° 257° (WSW) 3,679 7.3 -33.4°
Reaches altitude 10° 19:39:53 10° 267° (W) 2,769 6.6 -33.8°
Maximum altitude 19:45:40 32° 330° (NNW) 1,703 5.0 -34.8°
Enters shadow 19:48:16 25° 7° (N) 2,006 5.2 -35.2°
